Location: 5810 Zion Rd, Cleves, OH 45002, USA
(39.1922°N, 84.7113°W)
Time: 11:45:03
(UTC-05:00)

Vanguard 3 - Pass Details

Date: 22 December 2019
Orbit: 507 x 3263 km, 33.4° (Epoch: 21 January)

Event Time Altitude Azimuth Distance (km) Brightness Sun altitude
Rises 05:49:24 0° 243° (WSW) 2,649 - -23.5°
Reaches altitude 10° 05:51:26 10° 235° (SW) 1,856 - -23.1°
Exits shadow 05:53:44 29° 207° (SSW) 1,162 7.8 -22.7°
Maximum altitude 05:55:14 38° 165° (SSE) 1,049 7.9 -22.4°
Drops below altitude 10° 06:00:45 10° 99° (E) 2,707 11.0 -21.4°
Sets 06:04:19 0° 92° (E) 4,083 12.2 -20.7°
